Location: Lombard
(41.8800°N, 88.0080°W)
Time: 23:05:22
(UTC-05:00)

Tiros 1 - Pass Details

Date: 29 January 2023
Orbit: 628 x 662 km, 48.4° (Epoch: 20 March)

Event Time Altitude Azimuth Distance (km) Brightness Sun altitude
Rises 00:40:47 0° 196° (SSW) 2,896 - -64.9°
Reaches altitude 10° 00:43:38 10° 178° (S) 1,997 - -64.7°
Maximum altitude 00:46:51 19° 134° (SE) 1,508 - -64.5°
Drops below altitude 10° 00:50:05 10° 89° (E) 2,016 - -64.2°
Sets 00:52:58 0° 72° (ENE) 2,935 - -64.0°
